| time (UTC) | temp F | wind direction | speed knots | gust knots | rain 1hr in | rain 24hr in | rain mn in | humidity % | barometer mb |
| 20260505124308 | 64 | 211 | 2.6 | 7.0 | 0.00 | 0.00 | 0.00 | 67 | 1011.3 |
| 20260505122808 | 65 | 91 | 1.7 | 3.5 | 0.00 | 0.00 | 0.00 | 67 | 1011.1 |
| 20260505121305 | 64 | 187 | 1.7 | 5.2 | 0.00 | 0.00 | 0.00 | 68 | 1011.1 |
| 20260505115802 | 63 | 244 | 2.6 | 3.5 | 0.00 | 0.00 | 0.00 | 71 | 1011.0 |
| 20260505114259 | 61 | 233 | 4.3 | 5.2 | 0.00 | 0.00 | 0.00 | 74 | 1011.0 |
| 20260505112759 | 61 | 225 | 2.6 | 6.1 | 0.00 | 0.00 | 0.00 | 73 | 1011.2 |
| 20260505111259 | 62 | 239 | 7.0 | 7.8 | 0.00 | 0.00 | 0.00 | 72 | 1011.2 |
| 20260505101246 | 58 | 326 | 1.7 | 1.7 | 0.00 | 0.00 | 0.00 | 78 | 1010.6 |
| 20260505095747 | 58 | 218 | 0.0 | 0.9 | 0.00 | 0.00 | 0.00 | 78 | 1010.3 |
| 20260505094243 | 56 | 114 | 0.0 | 0.0 | 0.00 | 0.00 | 0.00 | 82 | 1010.0 |
| 20260505092739 | 56 | 107 | 0.0 | 1.7 | 0.00 | 0.00 | 0.00 | 83 | 1009.9 |
| 20260505091238 | 56 | 65 | 0.9 | 1.7 | 0.00 | 0.00 | 0.00 | 83 | 1010.0 |
| 20260505085737 | 56 | 114 | 0.0 | 0.9 | 0.00 | 0.00 | 0.00 | 82 | 1010.1 |
| 20260505084237 | 57 | 89 | 1.7 | 1.7 | 0.00 | 0.00 | 0.00 | 81 | 1010.2 |
| 20260505082732 | 57 | 135 | 0.9 | 1.7 | 0.00 | 0.00 | 0.00 | 80 | 1010.0 |
| 20260505081229 | 56 | 114 | 0.9 | 1.7 | 0.00 | 0.00 | 0.00 | 83 | 1010.2 |
| 20260505075728 | 55 | 36 | 0.0 | 0.9 | 0.00 | 0.00 | 0.00 | 84 | 1010.1 |
| 20260505074226 | 55 | 98 | 0.9 | 1.7 | 0.00 | 0.00 | 0.00 | 84 | 1010.2 |
| 20260505072723 | 55 | 100 | 0.0 | 0.0 | 0.00 | 0.00 | 0.00 | 84 | 1009.9 |
| 20260505071218 | 56 | 49 | 0.9 | 1.7 | 0.00 | 0.00 | 0.00 | 83 | 1009.9 |
| 20260505065713 | 56 | 47 | 1.7 | 1.7 | 0.00 | 0.00 | 0.00 | 81 | 1010.0 |
| 20260505064211 | 56 | 79 | 0.0 | 1.7 | 0.00 | 0.00 | 0.00 | 81 | 1009.8 |
| 20260505062706 | 55 | 119 | 1.7 | 1.7 | 0.00 | 0.00 | 0.00 | 83 | 1010.0 |
| 20260505061205 | 55 | 104 | 0.9 | 2.6 | 0.00 | 0.00 | 0.00 | 83 | 1010.1 |
| 20260505055700 | 55 | 164 | 0.9 | 2.6 | 0.00 | 0.00 | 0.00 | 83 | 1010.3 |
| 20260505054158 | 55 | 147 | 1.7 | 3.5 | 0.00 | 0.00 | 0.00 | 81 | 1010.3 |
| 20260505052655 | 56 | 109 | 0.9 | 2.6 | 0.00 | 0.00 | 0.00 | 80 | 1010.4 |
| 20260505051153 | 55 | 151 | 1.7 | 2.6 | 0.00 | 0.00 | 0.00 | 80 | 1010.5 |
| 20260505041145 | 58 | 134 | 1.7 | 2.6 | 0.00 | 0.00 | 0.00 | 71 | 1010.6 |
| 20260505035641 | 59 | 156 | 1.7 | 2.6 | 0.00 | 0.00 | 0.00 | 68 | 1010.7 |
| 20260505034138 | 60 | 185 | 1.7 | 4.3 | 0.00 | 0.00 | 0.00 | 65 | 1010.7 |
| 20260505032636 | 61 | 221 | 0.9 | 6.1 | 0.00 | 0.00 | 0.00 | 64 | 1010.8 |
| 20260505031131 | 60 | 195 | 5.2 | 6.1 | 0.00 | 0.00 | 0.00 | 64 | 1011.0 |
| 20260505025626 | 62 | 189 | 4.3 | 11.3 | 0.00 | 0.00 | 0.00 | 60 | 1010.9 |
| 20260505024125 | 61 | 198 | 1.7 | 3.5 | 0.00 | 0.00 | 0.00 | 61 | 1010.9 |
| 20260505022622 | 62 | 193 | 4.3 | 5.2 | 0.00 | 0.00 | 0.00 | 57 | 1011.0 |
| 20260505021118 | 62 | 190 | 3.5 | 7.0 | 0.00 | 0.00 | 0.00 | 57 | 1011.1 |
| 20260505015613 | 64 | 190 | 4.3 | 7.8 | 0.00 | 0.00 | 0.00 | 53 | 1010.9 |
| 20260505014109 | 64 | 189 | 7.8 | 10.4 | 0.00 | 0.00 | 0.00 | 52 | 1010.7 |
| 20260505012608 | 65 | 187 | 5.2 | 13.0 | 0.00 | 0.00 | 0.00 | 52 | 1010.8 |
| 20260505011104 | 65 | 201 | 4.3 | 12.2 | 0.00 | 0.00 | 0.00 | 52 | 1010.7 |
| 20260505005603 | 65 | 201 | 5.2 | 11.3 | 0.00 | 0.00 | 0.00 | 50 | 1010.4 |
| 20260505004100 | 65 | 209 | 3.5 | 9.6 | 0.00 | 0.00 | 0.00 | 51 | 1010.2 |
| 20260505002555 | 65 | 203 | 7.8 | 13.0 | 0.00 | 0.00 | 0.00 | 54 | 1010.0 |
| 20260505001054 | 65 | 183 | 4.3 | 7.0 | 0.00 | 0.00 | 0.00 | 57 | 1009.6 |
| 20260504235551 | 63 | 211 | 5.2 | 8.7 | 0.00 | 0.00 | 0.00 | 62 | 1009.4 |
| 20260504234048 | 63 | 182 | 2.6 | 7.0 | 0.00 | 0.00 | 0.00 | 64 | 1009.2 |
| 20260504232543 | 62 | 177 | 1.7 | 4.3 | 0.00 | 0.00 | 0.00 | 66 | 1009.1 |
| 20260504231039 | 61 | 150 | 2.6 | 4.3 | 0.00 | 0.00 | 0.00 | 69 | 1009.1 |
| 20260504225537 | 61 | 159 | 2.6 | 8.7 | 0.00 | 0.00 | 0.00 | 69 | 1009.0 |
| 20260504224034 | 62 | 170 | 1.7 | 6.1 | 0.00 | 0.00 | 0.00 | 68 | 1008.9 |
| 20260504222529 | 62 | 160 | 6.1 | 7.0 | 0.00 | 0.00 | 0.00 | 67 | 1009.0 |
| 20260504221026 | 61 | 141 | 4.3 | 9.6 | 0.00 | 0.00 | 0.00 | 68 | 1009.1 |
| 20260504215522 | 62 | 152 | 3.5 | 6.1 | 0.00 | 0.00 | 0.00 | 66 | 1009.4 |
| 20260504214017 | 62 | 160 | 4.3 | 9.6 | 0.00 | 0.00 | 0.00 | 66 | 1009.6 |
| 20260504212513 | 63 | 147 | 3.5 | 7.8 | 0.00 | 0.00 | 0.00 | 64 | 1009.5 |
| 20260504211011 | 63 | 191 | 2.6 | 10.4 | 0.00 | 0.00 | 0.00 | 63 | 1009.5 |
| 20260504205508 | 64 | 154 | 6.1 | 8.7 | 0.00 | 0.00 | 0.00 | 61 | 1009.5 |
| 20260504204008 | 65 | 185 | 5.2 | 10.4 | 0.00 | 0.00 | 0.00 | 59 | 1009.5 |
| 20260504202504 | 66 | 203 | 5.2 | 7.8 | 0.00 | 0.00 | 0.00 | 56 | 1009.6 |
| 20260504201001 | 67 | 195 | 1.7 | 6.1 | 0.00 | 0.00 | 0.00 | 52 | 1009.6 |
| 20260504195456 | 67 | 143 | 2.6 | 7.8 | 0.00 | 0.00 | 0.00 | 53 | 1009.6 |
| 20260504193956 | 69 | 160 | 3.5 | 7.0 | 0.00 | 0.00 | 0.00 | 48 | 1009.9 |
| 20260504192455 | 72 | 266 | 6.1 | 10.4 | 0.00 | 0.00 | 0.00 | 35 | 1010.0 |
| 20260504190953 | 72 | 230 | 8.7 | 13.0 | 0.00 | 0.00 | 0.00 | 35 | 1010.1 |
| 20260504185449 | 72 | 230 | 6.1 | 9.6 | 0.00 | 0.00 | 0.00 | 36 | 1010.5 |
| 20260504183948 | 73 | 220 | 2.6 | 9.6 | 0.00 | 0.00 | 0.00 | 35 | 1010.7 |
| 20260504182446 | 71 | 203 | 5.2 | 9.6 | 0.00 | 0.00 | 0.00 | 36 | 1010.5 |
| 20260504180944 | 70 | 254 | 1.7 | 11.3 | 0.00 | 0.00 | 0.00 | 38 | 1010.8 |
| 20260504175443 | 69 | 253 | 5.2 | 11.3 | 0.00 | 0.00 | 0.00 | 39 | 1011.5 |
| 20260504173941 | 69 | 234 | 4.3 | 11.3 | 0.00 | 0.00 | 0.00 | 40 | 1011.3 |
| 20260504172437 | 69 | 248 | 2.6 | 9.6 | 0.00 | 0.00 | 0.00 | 40 | 1011.4 |
| 20260504170933 | 67 | 235 | 7.8 | 14.8 | 0.00 | 0.00 | 0.00 | 41 | 1011.5 |
| 20260504150906 | 64 | 242 | 9.6 | 11.3 | 0.00 | 0.00 | 0.00 | 47 | 1013.3 |
| 20260504140852 | 60 | 242 | 9.6 | 12.2 | 0.00 | 0.00 | 0.00 | 56 | 1013.4 |